Location: Blue Sky Observatory
(43.1153°N, 70.9036°W)
Time: 06:51:13
(UTC-05:00)

Daily predictions for brighter satellites

Satellite Brightness Start Highest point End
(mag) Time Altitude Azimuth Time Altitude Azimuth Time Altitude Azimuth
Cosmos 2278 Rocket 2.3 16:32:10 10° SSW 16:37:50 86° WNW 16:43:32 10° NNE
SL-8 Rocket 4.2 16:32:54 10° N 16:39:04 79° W 16:45:13 10° S
CZ-2C R/B 2.8 16:34:19 10° SE 16:39:07 44° ENE 16:44:01 10° N
PAYLOAD A 3.9 16:38:23 10° SSE 16:43:15 71° ENE 16:48:21 10° N
NOSS 3-4 (A) 4.2 16:38:43 10° NNW 16:45:16 42° NE 16:52:11 10° ESE
NOSS 3-4 (C) 4.2 16:38:49 10° NNW 16:45:22 42° NE 16:52:16 10° ESE
Cosmos 1666 4.4 16:44:52 10° NE 16:47:06 15° ENE 16:49:19 10° ESE
SMAP 3.2 16:46:20 10° SSE 16:50:49 52° ENE 16:55:22 10° N
Cosmos 1833 Rocket 2.8 16:45:35 10° NNW 16:51:08 53° ENE 16:56:36 10° SE
NOSS 3-3 (A) 4.3 16:46:31 10° SW 16:52:43 70° NW 16:59:28 10° NNE
BREEZE-M DEB (TANK) 2.6 16:50:40 10° W 16:52:43 31° NNW 16:54:47 11° NE
NOSS 3-3 (C) 4.3 16:46:37 10° SW 16:52:48 71° NW 16:59:34 10° NNE
Cosmos 2366 rocket 4.2 16:47:27 10° N 16:53:49 83° W 17:00:05 10° S
Meteor 1-18 Rocket 4.5 16:51:07 10° SSW 16:56:48 79° W 17:02:39 10° N
Okean 1 3.4 16:57:24 10° S 17:01:28 82° W 17:05:34 10° N
SJ-12 3.9 16:57:30 10° SSE 17:01:36 74° ENE 17:05:44 10° N
Intercosmos 25 3.6 16:58:48 10° NNE 17:01:42 31° ENE 17:04:53 10° SE
Tiangong 1 1.0 16:59:02 10° W 17:02:04 81° S 17:04:35 14° E
Cosmos 1346 Rocket 2.7 16:58:26 10° S 17:02:17 73° E 17:06:11 10° NNE
Cosmos 2082 Rocket 2.2 16:56:56 10° NNW 17:02:38 76° ENE 17:08:19 10° SSE
CZ-3B DEB 2.6 17:01:07 10° WSW 17:04:51 57° NNW 17:13:45 11° NE
Cosmos 407 Rocket 4.4 17:00:46 10° N 17:04:59 25° ENE 17:09:14 10° ESE
ERBS 4.1 17:05:06 10° NNW 17:07:19 16° NNE 17:08:22 14° NE
AQUARIUS 4.1 17:03:35 10° SSE 17:08:04 79° ENE 17:12:34 10° N
Cosmos 1500 3.3 17:05:03 10° N 17:08:54 82° W 17:12:46 10° S
Cosmos 2056 Rocket 4.3 17:05:40 10° SSE 17:10:23 33° E 17:14:41 12° NE
Cosmos 921 Rocket 2.9 17:07:56 10° S 17:12:10 70° ESE 17:16:32 10° NNE
COSMO-SKYMED 1 3.5 17:09:07 10° NE 17:12:54 28° E 17:16:39 10° SSE
Cosmos 1743 2.8 17:10:03 10° N 17:13:51 52° E 17:17:36 10° SSE
Cosmos 1025 Rocket 3.7 17:11:31 10° SSE 17:15:28 34° E 17:19:28 10° NNE
ISS -1.4 17:17:21 10° NW 17:19:46 18° N 17:20:54 16° NNE
Cosmos 1624 Rocket 4.3 17:18:02 10° S 17:22:57 45° ESE 17:27:15 14° NE
Cosmos 1821 Rocket 4.0 17:20:42 10° N 17:26:41 57° ENE 17:32:41 10° SSE
Cosmos 1371 Rocket 4.0 17:23:56 10° S 17:29:13 65° ESE 17:34:18 11° NNE
Timation 1 Rocket 4.4 17:25:52 10° SSW 17:31:50 82° WNW 17:37:51 10° NNE
Meteor 2-16 Rocket 4.3 17:26:05 10° N 17:32:12 76° E 17:38:16 10° SSE
Meteor 2-21 Rocket 4.5 17:26:29 10° N 17:32:42 88° W 17:38:49 10° S
Meteor 1-19 Rocket 4.2 17:27:11 10° S 17:32:58 76° E 17:38:52 10° NNE
Cosmos 1484 Rocket 2.6 17:33:00 10° SSE 17:36:42 64° ENE 17:40:23 10° N
YAOGAN 1 3.3 17:32:38 10° S 17:36:53 55° W 17:41:09 10° NNW
Cosmos 1605 Rocket 4.4 17:31:36 10° N 17:37:28 39° ENE 17:43:12 10° SE
NOSS 7 (E) 4.2 17:35:20 10° SSW 17:38:46 86° SE 17:40:11 32° NE
Cosmos 2058 Rocket 3.7 17:36:19 10° N 17:40:21 32° ENE 17:44:20 10° SE
Cosmos 2369 Rocket 3.3 17:36:20 10° SSE 17:40:39 23° E 17:40:59 23° E
Meteor 2-9 Rocket 4.1 17:35:47 10° N 17:41:09 60° ENE 17:46:23 10° SSE
SPOT 3 Rocket 4.5 17:36:33 10° S 17:41:34 51° W 17:46:36 10° NNW
NOSS 2-1 (D) 3.8 17:38:50 10° SW 17:42:38 58° NW 17:45:29 20° NNE
NOSS 2-1 (C) 3.8 17:39:29 10° SW 17:43:18 59° NW 17:46:09 20° NNE
BREEZE M DEB (TANK) 2.7 17:35:05 10° SW 17:43:20 78° SSE 17:44:40 36° ENE
NOSS 7 (D) 4.4 17:47:01 10° SW 17:50:28 79° NW 17:51:28 42° NNE
Meteor 1-15 Rocket 4.3 17:44:41 10° N 17:50:31 60° ENE 17:56:13 10° SSE
Meteor 2-4 Rocket 3.5 17:47:42 10° S 17:53:03 80° E 17:58:26 10° NNE
Meteor 1-23 Rocket 4.1 17:48:37 10° S 17:54:16 71° E 17:59:53 10° NNE
Cosmos 1190 Rocket 3.9 17:52:50 10° NNW 17:58:07 81° ENE 18:03:19 10° SSE
Okean 2 3.3 17:54:47 10° S 17:58:54 63° E 18:00:15 39° NNE
Cosmos 1452 Rocket 4.0 17:54:22 10° SSE 17:59:08 37° ESE 17:59:28 36° E
SKYMED 2 3.5 17:57:39 16° NNE 18:01:06 86° WNW 18:05:26 10° SSW
NOSS 2-1 (E) 4.4 17:58:21 10° WSW 18:02:08 44° NW 18:04:23 24° NNE
Cosmos 1340 3.3 18:00:07 10° S 18:02:53 40° SE 18:02:53 40° SE
METEOR-M 4.1 18:00:59 10° SSE 18:06:10 55° ENE 18:11:24 10° N
CZ-4 R/B 4.5 18:06:04 10° SW 18:08:47 17° W 18:11:30 10° NW
BREEZE-M DEB (TANK) 3.6 18:05:04 10° WNW 18:10:21 37° N 18:11:01 35° NNE
GEOS 3 Rocket 3.8 18:12:10 46° ENE 18:12:28 47° NE 18:17:22 10° NNW
SL-8 R/B 4.2 18:08:27 10° WNW 18:13:01 43° N 18:13:33 42° NNE
USA 234 3.4 18:11:47 29° NE 18:15:21 68° NW 18:21:49 10° WSW
Cosmos 1892 Rocket 3.4 18:11:38 10° S 18:16:00 89° E 18:17:17 46° N
Cosmos 1727 Rocket 3.9 18:11:54 10° S 18:17:58 61° E 18:21:20 27° NNE
Cosmos 1726 Rocket 3.8 18:15:50 10° NNW 18:20:18 71° W 18:24:44 10° S
Cosmos 1666 4.0 18:19:20 10° NNW 18:22:59 40° W 18:26:37 10° SSW
Tiangong 1 3.7 18:35:12 10° W 18:36:16 20° W 18:36:16 20° W
BREEZE M DEB (TANK) 3.9 18:40:32 10° WNW 18:44:51 78° SSW 18:50:56 30° SE
Cosmos 1339 Rocket 4.3 18:45:59 10° S 18:52:04 84° W 18:53:26 56° N
Cosmos 2369 Rocket 3.2 19:18:41 10° SW 19:22:50 43° WSW 19:22:50 43° WSW
CZ-3B DEB 4.3 19:34:18 10° WNW 19:41:16 44° NNE 19:41:21 44° NNE
FALCON 9 R/B 4.4 20:04:52 10° W 20:13:37 29° SW 20:13:37 29° SW
